Regional Weather Roundup
Issued by NWS

Home | Current Version | Previous Version | Text Only | Print | Product List | Glossary Off
Versions: 1 2 3 4 5 6 7 8 9 10 11 12 13 14 15 16 17 18 19 20 21 22 23 24 25 26 27 28 29 30 31 32 33 34 35 36 37 38 39 40 41 42 43 44 45 46 47 48 49 50

000
ASUS43 KMPX 020401
RWRMN
WEATHER ROUNDUP FOR MINNESOTA
NATIONAL WEATHER SERVICE TWIN CITIES/CHANHASSEN MN
1100 PM CDT WED APR 01 2015


NOTE: "FAIR" INDICATES FEW OR NO CLOUDS BELOW 12,000 FEET WITH NO
SIGNIFICANT WEATHER AND/OR OBSTRUCTIONS TO VISIBILITY. N/A MEANS
CURRENT SKY AND/OR WEATHER CONDITIONS ARE NOT AVAILABLE.

MNZ060>063-068>070-020500-
   Twin Cities Metro

CITY           SKY/WX    TMP DP  RH WIND       PRES   REMARKS
TWIN CITIES    CLOUDY    59  54  83 SW9       29.56R
ST PAUL        CLOUDY    58  54  86 CALM      29.55R
CRYSTAL        CLOUDY    60  48  64 W7        29.55R
BLAINE         CLOUDY    61  52  72 SW7       29.55R
LAKEVILLE      CLOUDY    55  54  94 SW7       29.58F
EDEN PRAIRIE   CLOUDY    57  51  80 W8        29.56R
SOUTH ST PAUL  CLOUDY    59  53  82 SW8       29.55S
LAKE ELMO      LGT RAIN  57  54  88 S9        29.55R
$$
MNZ001>005-007-008-013>017-022>024-027-028-020500-
   Northwest Minnesota

CITY           SKY/WX    TMP DP  RH WIND       PRES   REMARKS
BEMIDJI        MOCLDY    49  40  72 W15G25    29.53R
HALLOCK        PTCLDY    43  37  81 W8        29.53F
ROSEAU         MOCLDY    46  39  76 W16G25    29.49R
WARROAD        CLOUDY    48  41  76 W15G23    29.47R
THIEF RVR FALL PTCLDY    46  37  71 W10       29.55R
CROOKSTON      MOCLDY    45  36  70 NW13      29.58R
FOSSTON        PTCLDY    45  36  70 W13G21    29.58R
DETROIT LAKES  CLEAR     46  36  66 NW12G18   29.62R
MOORHEAD       CLEAR     52  36  54 NW13      29.62R
PARK RAPIDS    CLEAR     49  38  65 NW15G24   29.55R
MAHNOMEN       FAIR      46  37  68 NW14      29.58R
$$
MNZ006-009>011-018-025>026-020500-
   North Central Minnesota

CITY           SKY/WX    TMP DP  RH WIND       PRES   REMARKS
BAUDETTE       MOCLDY    49  41  74 W21G31    29.44R
FLAG ISLAND    CLOUDY    48  39  71 W18       29.40S
INTL FALLS     CLEAR     50  38  63 W12       29.42R
WASKISH        PTCLDY    43  37  81 W14       29.49R
BIG FORK       CLEAR     52  39  62 W6        29.47R
LONGVILLE      CLEAR     52  43  71 W12       29.51S
GRAND RAPIDS   CLEAR     52  39  62 NW12      29.49R
CRANE LAKE     CLEAR     43  34  70 S2        29.41S
ORR            CLEAR     50  37  62 W9        29.41R
COOK           CLEAR     48  37  66 SW6       29.44R
WALKER         FAIR      51  40  67 W16G25    29.51R
$$
MNZ012-019>021-037-020500-
   Northeast Minnesota

CITY           SKY/WX    TMP DP  RH WIND       PRES   REMARKS
DULUTH         MOCLDY    44  39  82 SW10      29.47R
ELY            CLEAR     36  30  80 CALM      29.42S
HIBBING        CLEAR     33  29  85 W5        29.46  WCI  29
EVELETH        CLEAR     39  34  81 CALM      29.46S
DULUTH HARBOR  MOCLDY    36  34  93 CALM      29.49S
TWO HARBORS    MOCLDY    37  34  87 W5        29.44S
SILVER BAY     MOCLDY    36  32  87 CALM      29.43F
GRAND MARAIS     N/A     41  34  76 NE6       29.43F
G MARAIS ARPRT MOCLDY    39  32  75 S5        29.43F
$$
MNZ029>031-032-039>041-046>048-054>057-064-020500-
   West Central Minnesota

CITY           SKY/WX    TMP DP  RH WIND       PRES   REMARKS
FERGUS FALLS   CLEAR     50  32  50 NW17      29.64R
WHEATON        CLEAR     48  34  57 NW13      29.67R
MORRIS         PTCLDY    52  36  54 NW20G25   29.62R
ALEXANDRIA     CLEAR     52  37  56 NW17G26   29.61R
ELBOW LAKE     FAIR      49  37  63 NW14G20   29.63R
WADENA         CLEAR     48  36  61 NW24G35   29.59R
GLENWOOD       PTCLDY    50  37  62 NW15      29.61R
APPLETON       PTCLDY    54  34  47 NW16      29.64R
BENSON         MOCLDY    54  34  47 N16       29.62R
ORTONVILLE     FAIR      54  32  43 NW18G24   29.65R
MADISON        MOCLDY    54  30  40 NW10      29.66R
WILLMAR        FAIR      52  39  62 W12       29.62R
$$
MNZ033>034-036-042>043-049>051-058-059-020500-
   Central Minnesota

CITY           SKY/WX    TMP DP  RH WIND       PRES   REMARKS
ST CLOUD       CLOUDY    55  41  59 W9        29.57R
SAUK CENTRE    FAIR      51  40  67 W7        29.58R
PAYNESVILLE    MOCLDY    47  40  74 SW7       29.60R
AITKIN         PTCLDY    57  41  54 W5        29.51R
PINE RIVER     PTCLDY    54  43  66 W8        29.57R
BRAINERD       PTCLDY    54  41  61 NW9       29.54R
STAPLES        PTCLDY    52  36  54 NW23G30   29.56R
LONG PRAIRIE   FAIR      52  37  58 W14G22    29.57R
LITTLE FALLS   MOCLDY    54  37  54 W7        29.57R
LITCHFIELD     CLOUDY    55  45  67 CALM      29.60R
BUFFALO        CLOUDY    55  43  62 W7        29.57R
MAPLE LAKE     CLOUDY    56  46  68 W8        29.58R
$$
MNZ037-044-045-052-053-020500-
   East Central Minnesota

CITY           SKY/WX    TMP DP  RH WIND       PRES   REMARKS
PRINCETON      CLOUDY    55  43  62 W8        29.56R
MORA           CLOUDY    55  39  54 NW12      29.54R
CAMBRIDGE      CLOUDY    61  45  55 W8        29.52R
RUSH CITY      CLOUDY    57  50  78 SW3       29.53R
MOOSE LAKE     MOCLDY    57  41  54 W7        29.48R
HINCKLEY       FAIR      54  52  94 W6        29.51R
CLOQUET        MOCLDY    36  32  87 CALM      29.48R
MCGREGOR       MOCLDY    55  41  58 NW14G21   29.52R
$$
MNZ071>073-080-081-089-090-097-098-020500-
   Southwest Minnesota

CITY           SKY/WX    TMP DP  RH WIND       PRES   REMARKS
MONTEVIDEO     CLOUDY    57  34  41 N14G20    29.65R
GRANITE FALLS  CLOUDY    56  34  43 NW16      29.65R
CANBY          CLOUDY    55  32  42 NW12      29.67R
MARSHALL       CLOUDY    54  34  47 NW15      29.64F
REDWOOD FALLS  CLOUDY    57  39  51 NW12      29.60F
OLIVIA         CLOUDY    52  41  66 NW12      29.60S
PIPESTONE      CLOUDY    57  36  44 N9        29.64F
WINDOM         CLOUDY    55  45  67 NW10      29.62S
WORTHINGTON    CLOUDY    54  41  62 NW13      29.64F
JACKSON        CLOUDY    55  45  67 N6        29.63S
TRACY          CLOUDY    58  38  47 NW13      29.63F
SLAYTON        CLOUDY    55  33  44 NW13G18   29.63F
$$
MNZ065>067-074>077-082>085-091>093-020500-
   South Central Minnesota

CITY           SKY/WX    TMP DP  RH WIND       PRES   REMARKS
MANKATO        CLOUDY    57  46  67 NW8       29.60R
NEW ULM        CLOUDY    57  43  58 NW17G24   29.60R
ST JAMES       CLOUDY    57  46  67 NW7       29.63R
FAIRMONT       CLOUDY    55  48  76 CALM      29.64R
GLENCOE        CLOUDY    57  48  72 SW5       29.59R
FARIBAULT      CLOUDY    55  54  94 W9        29.60F
OWATONNA       LGT RAIN  55  54  94 S6        29.61F
WASECA         CLOUDY    55  52  88 S5        29.63R
ALBERT LEA     CLOUDY    57  55  94 S6        29.66R
$$
MNZ078>079-086>088-094>096-020500-
   Southeast Minnesota

CITY           SKY/WX    TMP DP  RH WIND       PRES   REMARKS
ROCHESTER      TSTM      61  48  62 W23G38    29.67R
RED WING       HVY RAIN  57  55  94 S5        29.62R
DODGE CENTER   RAIN      57  54  88 N7        29.64S
WINONA         CLOUDY    70  37  30 S15G25    29.57S
AUSTIN         TSTM      57  52  82 W7        29.67R
PRESTON        CLOUDY    61  41  47 S22G30    29.61R
$$
ABBREVIATIONS USED IN REMARKS
   TC - TEMPERATURES IN CELSIUS
  WCI - WIND CHILL INDEX
   HX - HEAT INDEX
  VSB - VISIBILITY
$$


USA.gov is the U.S. government's official web portal to all federal, state and local government web resources and services.